Presure
168 184 159 170 170 136 131 103 138 125 180 159 153 141 211 208 204 212 212 228 162 233 237 255 227 254 345 337 334 318 306 323 337 331 348 344 328 320 287 215 208 197 230 197 234 199 190
120 115 156 155 141 159 113 131 128 132 132 161 183 156 123 204 215 201 223 205 240 231 242 246 234 200 278 348 328 327 312 310 314 339 335 353 332 317 295 218 212 200 215 218 229 230 197
183 129 182 186 156 142 108 125 131 204 190 184 197 119 205 191 199 211 212 209 224 231 242 242 247 224 255 293 331 312 313 308 308 311 339 352 333 314 300 275 209 241 215 227 213 229 201
140 150 158 182 103 148 124 119 194 191 169 126 181 185 196 207 193 212 213 214 223 230 225 236 243 219 242 177 344 323 306 305 307 306 318 330 333 319 298 282 237 239 214 228 206 228 212
180 157 179 167 144 101 129 134 116 185 147 125 182 109 190 182 161 210 196 209 213 230 229 243 237 228 231 253 294 341 320 309 303 304 305 329 339 317 301 284 263 245 209 230 216 223 224
125 136 147 134 139 125 159 122 118 184 180 181 172 183 197 193 193 208 202 210 193 224 230 233 234 238 217 242 259 332 335 319 304 307 303 305 320 319 306 289 266 249 217 240 224 212 228
184 136 161 143 163 113 187 137 112 166 112 181 130 190 172 183 196 192 198 193 210 212 219 223 234 237 225 232 243 261 357 344 339 336 304 307 310 326 310 295 276 255 235 230 229 215 224
171 183 171 182 181 175 132 171 132 147 166 184 194 184 180 187 187 185 201 193 211 205 218 214 227 235 237 213 231 246 262 346 336 322 324 328 309 311 319 301 281 260 244 219 235 223 213
175 162 139 161 175 145 163 142 120 170 179 158 144 180 188 180 192 191 191 201 209 209 201 213 224 236 239 232 215 231 244 262 340 329 323 320 324 312 315 317 292 274 247 226 196 228 217
174 123 131 166 178 184 180 119 154 136 178 180 193 187 194 186 192 186 196 194 205 206 206 207 211 230 230 233 226 216 233 243 262 331 327 322 329 350 356 319 331 284 262 246 246 204 221
175 130 184 127 136 114 171 116 136 172 182 184 197 185 177 182 187 191 195 187 206 200 205 214 209 230 229 237 232 226 216 233 244 263 336 322 314 325 339 371 334 326 274 255 228 256 228
109 132 183 185 184 121 181 131 179 180 194 148 195 178 182 200 194 199 202 185 199 197 202 198 214 215 227 226 232 233 200 221 235 246 262 335 325 313 319 339 369 367 287 266 250 245 249
165 149 124 182 157 171 177 127 182 180 194 189 174 154 174 179 181 194 201 167 175 198 195 203 202 208 215 236 222 235 228 220 216 233 245 272 340 327 315 319 338 373 342 272 257 234 261
184 185 182 190 182 185 183 168 154 136 174 179 187 188 181 189 199 181 186 198 156 178 206 191 143 208 211 226 226 229 237 225 215 219 234 243 268 359 331 321 321 337 341 326 264 256 220
193 183 149 158 154 165 179 186 180 169 181 184 186 190 180 186 185 164 134 201 177 133 186 198 187 183 200 215 235 219 230 230 224 221 221 232 242 262 383 337 331 336 332 323 278 260 250
178 185 185 171 180 183 178 169 168 178 170 157 174 169 183 180 175 193 189 190 178 161 185 175 197 190 202 219 214 213 206 231 232 226 210 223 230 241 263 413 336 333 344 340 363 266 256
183 188 188 163 180 176 179 176 166 163 160 174 174 182 175 187 182 186 191 186 178 148 151 141 166 192 196 182 219 226 212 215 240 233 216 211 222 228 238 264 376 343 339 344 348 331 264
201 171 159 189 175 179 179 173 190 190 180 151 179 186 165 201 201 204 188 182 173 172 207 188 196 192 174 199 177 207 212 193 235 225 234 219 208 224 226 236 263 345 384 342 351 365 275
172 196 177 180 188 180 178 182 161 174 181 173 183 187 182 193 210 189 177 181 171 207 200 203 194 197 190 202 200 198 168 227 206 234 229 233 224 214 217 229 238 262 342 380 358 362 368
192 179 184 184 173 189 190 174 145 160 158 177 172 186 189 185 190 188 177 187 202 192 201 202 195 196 187 202 192 203 176 158 216 225 231 230 228 219 213 215 226 237 266 335 374 385 383
202 185 206 184 178 168 152 152 158 155 193 186 187 194 179 193 173 212 203 207 204 165 200 196 198 189 193 170 204 197 161 229 162 224 215 167 213 223 217 212 210 225 239 263 329 371 374
195 155 188 154 186 184 191 194 197 198 167 159 199 174 191 172 181 193 195 201 191 189 203 196 203 202 184 185 203 206 157 160 213 192 143 222 226 212 222 216 208 210 226 238 255 329 368
187 185 189 183 178 203 163 167 167 195 201 203 194 165 134 154 191 143 172 181 194 200 184 193 152 192 198 189 190 199 183 195 209 178 209 160 216 199 214 218 208 216 201 220 234 249 302
171 139 183 183 183 173 185 160 153 208 201 197 162 132 135 164 167 192 189 162 193 150 171 208 202 197 206 195 186 186 188 191 197 161 198 220 203 201 205 215 221 221 214 210 216 228 241
188 138 201 187 188 191 189 191 187 189 175 196 189 134 140 141 140 143 142 151 208 208 208 193 189 199 202 177 207 163 194 199 193 210 193 164 228 181 213 226 208 211 215 208 206 210 225
208 205 197 195 193 199 196 185 172 179 147 179 137 208 144 142 188 168 179 180 186 202 188 182 189 199 192 212 207 194 214 193 197 195 137 204 138 227 204 222 227 239 212 203 218 217 205
201 212 206 206 207 199 202 215 210 207 206 209 192 212 215 200 200 206 167 151 188 169 207 199 193 200 197 204 191 213 205 196 224 209 222 211 200 188 171 200 231 235 239 208 204 205 217
211 216 207 180 214 193 173 197 199 212 204 210 207 201 214 213 205 216 221 189 214 221 213 219 219 186 206 185 199 229 206 215 216 213 212 209 210 211 207 170 164 200 203 221 222 196 197
197 200 210 206 201 197 200 209 196 205 135 213 217 144 219 176 224 204 212 234 212 221 220 210 202 224 221 176 213 231 222 213 211 207 198 207 214 210 205 203 201 239 222 229 224 231 224
Wind_Speed
29 32 27 33 31 30 22 8 33 27 47 43 38 40 56 60 60 62 64 67 42 67 67 75 61 77 44 32 21 11 8 6 17 32 43 64 75 82 95 84 80 76 85 78 80 86 80
16 10 31 31 30 34 14 30 30 34 34 41 49 44 37 63 65 64 63 64 69 68 69 73 64 51 89 27 23 11 5 4 9 22 37 59 72 81 92 86 82 79 82 85 82 83 86
31 14 34 32 31 30 6 31 37 44 45 48 49 32 56 60 64 65 64 63 70 72 71 72 74 63 80 68 18 16 10 3 8 15 29 47 67 79 89 97 84 89 85 89 84 85 90
27 32 34 38 6 33 26 24 46 45 44 35 50 53 55 63 62 63 66 68 71 73 70 71 74 62 75 35 15 12 12 7 5 13 23 40 63 75 87 94 91 92 88 91 88 87 92
38 30 37 36 31 13 28 34 22 44 41 38 52 23 55 57 50 64 64 67 71 73 73 74 74 64 69 77 73 12 11 7 9 12 22 28 48 73 85 93 97 93 87 92 91 90 91
23 30 31 28 32 27 36 27 29 46 48 48 51 54 56 56 60 66 66 70 60 75 75 77 73 71 58 71 81 34 12 10 12 15 20 30 41 70 81 90 97 95 87 95 94 91 90
41 31 36 31 41 22 43 35 23 35 24 48 43 53 54 55 61 63 66 63 68 72 73 75 74 70 61 66 72 83 18 12 5 11 20 27 36 50 77 88 95 96 93 91 95 92 90
38 45 42 37 39 39 30 44 38 43 46 50 52 51 53 56 59 57 68 64 70 67 73 72 73 72 70 55 67 74 82 22 11 5 6 19 33 42 66 85 93 95 95 90 98 95 90
51 44 40 39 38 35 39 37 39 45 48 49 49 50 57 55 62 61 63 71 70 69 64 72 72 72 72 65 56 67 71 82 23 16 7 7 20 40 49 73 93 97 96 93 70 96 92
53 29 35 44 44 44 44 34 41 43 50 52 54 52 59 57 63 58 68 67 68 69 68 68 69 71 68 68 62 56 68 69 81 24 17 10 5 10 28 60 72 96 98 97 95 81 93
51 31 52 34 39 29 46 35 40 47 53 53 55 53 48 54 60 63 67 61 68 63 68 70 69 71 68 67 65 60 55 66 69 81 18 18 14 8 9 14 62 83 98 97 90 96 96
19 40 54 52 50 32 46 39 47 48 55 47 54 52 52 62 64 67 68 61 68 65 65 64 71 71 70 65 64 63 43 57 65 72 79 19 16 12 9 5 13 44 97 98 94 94 97
45 43 39 53 42 40 45 38 51 49 58 54 48 44 51 51 56 63 64 48 48 65 62 64 65 66 67 65 62 63 59 54 53 62 70 69 16 14 8 6 8 15 58 97 95 89 89
54 57 55 56 52 54 51 41 44 42 46 53 56 58 54 60 63 57 57 63 40 52 67 61 29 65 67 65 61 62 63 56 50 53 60 67 69 11 12 7 10 16 40 68 95 92 87
59 56 42 46 48 43 47 56 51 47 55 56 55 59 55 60 56 48 33 64 51 31 54 64 55 54 61 66 59 59 61 58 54 52 53 57 63 70 8 10 9 15 31 56 94 94 90
49 59 62 45 50 52 51 44 47 56 48 38 51 48 61 57 53 65 60 58 52 40 54 49 62 55 64 65 62 55 54 59 55 50 43 52 54 60 65 9 11 12 17 30 31 94 87
56 59 61 51 55 46 52 53 47 45 45 54 53 64 52 66 61 63 61 55 53 31 31 31 39 57 58 41 63 59 55 52 58 52 44 41 47 49 55 60 19 11 14 18 30 54 88
64 47 55 64 48 53 52 49 65 64 62 46 62 69 58 69 65 65 60 56 48 51 65 57 59 56 38 57 40 62 57 45 55 49 49 43 36 46 44 50 57 27 11 15 20 26 87
46 65 52 60 64 56 57 61 45 56 63 59 63 67 65 72 66 61 51 54 49 69 56 59 59 57 57 56 55 55 27 50 48 52 49 48 41 40 40 43 48 54 27 14 14 23 30
61 54 62 57 52 62 68 58 45 49 53 60 55 70 69 61 63 59 54 61 67 57 60 58 58 57 53 61 54 53 42 25 50 45 47 45 43 37 37 36 39 43 50 29 15 7 21
63 63 65 59 58 50 47 47 49 51 71 67 69 72 59 67 52 60 64 64 67 49 62 57 58 55 55 43 62 56 33 46 27 34 41 21 38 39 35 32 32 38 39 45 28 12 6
64 49 64 49 63 63 66 66 67 68 49 49 66 52 68 57 63 65 65 64 59 55 62 61 61 58 51 50 57 55 28 28 47 36 20 37 41 34 38 32 28 29 34 34 39 24 11
59 60 66 53 57 68 50 50 53 68 67 69 70 53 46 55 64 46 57 56 62 62 56 59 43 58 58 53 53 53 44 52 47 35 38 28 33 38 34 32 25 31 21 26 26 29 23
57 42 55 56 58 57 66 57 55 66 72 71 57 46 50 60 58 73 68 56 65 50 58 67 61 59 61 56 52 48 53 52 53 36 47 32 46 46 40 36 31 28 28 21 18 14 16
68 48 70 72 74 74 74 72 72 72 63 75 72 49 52 57 58 58 56 60 67 67 64 64 61 61 60 51 58 45 55 56 55 57 47 32 27 40 32 35 40 28 26 20 23 19 11
74 74 77 77 78 79 79 72 67 69 56 70 51 73 54 58 70 63 69 69 68 66 67 66 67 66 61 64 60 53 54 55 58 59 33 49 33 33 35 37 41 40 32 25 28 25 26
72 78 78 78 80 78 80 80 77 76 75 76 74 75 75 69 72 72 71 67 74 70 72 72 70 69 70 67 59 60 56 57 52 56 51 53 55 45 39 48 45 45 41 37 29 27 30
76 79 76 72 81 76 75 77 79 79 75 77 78 74 80 73 74 84 83 76 86 82 74 70 70 70 73 64 65 64 59 57 53 55 55 54 54 50 45 43 41 43 39 39 41 40 35
71 74 81 83 78 74 75 82 72 82 55 89 90 58 91 74 84 79 87 90 81 78 78 74 74 80 79 66 69 68 62 59 59 57 63 59 60 58 58 55 61 59 47 43 45 45 47
Wind_Direction
294 314 306 307 319 309 299 272 315 324 336 327 335 319 352 350 346 350 348 353 334 353 352 360 346 358 4 0 1 349 329 274 227 219 211 205 209 206 211 215 216 217 215 219 215 222 225
294 283 306 307 304 312 276 315 319 318 323 334 338 332 324 353 353 347 354 349 357 356 357 2 354 349 11 2 360 4 359 291 245 219 211 206 206 204 208 213 212 215 217 216 215 214 224
309 287 310 315 303 306 241 318 317 337 335 337 347 325 353 344 350 352 354 352 359 1 1 4 5 359 8 15 359 360 358 318 244 227 216 209 205 204 204 208 212 211 214 214 216 215 223
289 292 297 314 251 305 311 320 331 331 334 333 339 341 349 358 349 354 356 357 1 1 1 5 9 0 7 342 354 351 341 328 248 226 218 212 205 204 204 208 210 211 212 212 218 214 218
293 293 301 303 299 265 309 316 314 330 325 333 340 307 341 345 341 353 350 356 358 3 4 7 9 4 7 14 21 352 346 302 263 225 217 214 211 204 203 207 209 211 212 211 215 214 215
285 286 289 293 293 303 312 310 326 326 331 332 336 337 349 349 351 355 352 356 357 3 4 8 6 9 3 12 20 21 345 301 270 236 220 213 213 207 204 206 209 210 211 211 214 217 214
283 284 292 296 304 285 313 309 330 323 331 330 331 337 334 342 352 352 353 352 358 3 6 6 6 8 5 10 17 23 17 1 317 260 230 219 213 214 206 206 209 209 211 211 213 218 215
278 281 296 295 302 304 303 316 311 316 323 328 331 333 335 343 347 347 354 352 358 359 5 8 4 7 10 6 14 19 25 30 25 354 251 230 218 212 212 206 208 211 211 212 213 215 218
281 285 283 294 304 304 306 308 314 325 327 327 331 334 339 340 345 347 351 353 358 359 1 5 6 8 9 11 10 16 19 24 22 29 10 226 222 218 215 213 208 210 211 212 212 214 218
278 295 291 293 298 299 305 310 316 315 322 324 328 333 338 339 343 343 349 350 355 359 359 1 3 4 9 10 11 13 17 20 24 20 21 3 320 230 226 216 216 209 212 212 212 215 216
272 295 279 297 294 303 304 309 311 317 318 322 328 332 333 336 339 342 345 348 352 356 0 360 2 4 5 11 10 12 14 17 20 24 13 15 0 345 223 232 218 215 212 214 213 212 216
290 287 279 280 286 301 299 305 309 313 317 320 327 328 332 338 339 341 344 344 348 352 356 359 360 2 4 5 11 11 8 17 18 22 23 6 6 351 321 231 212 216 210 214 215 215 214
281 281 291 281 294 298 302 306 307 313 315 319 322 318 330 334 336 341 344 339 346 348 353 355 360 1 1 3 7 11 10 12 17 19 22 23 359 351 332 282 204 203 215 214 216 216 215
264 262 270 272 284 288 294 303 306 308 316 318 320 323 327 330 333 336 339 342 337 344 349 350 345 359 360 1 0 8 9 10 11 16 21 22 23 340 342 304 239 212 218 218 216 217 217
261 267 280 277 285 291 296 297 302 310 312 315 320 321 323 326 331 328 319 339 336 328 343 349 349 351 357 359 359 359 7 7 10 13 16 19 22 23 328 327 276 235 226 219 214 218 217
272 267 272 281 284 284 289 295 299 305 308 313 315 317 320 321 323 327 332 334 333 335 342 343 349 351 351 356 358 1 0 3 4 8 12 14 18 21 23 1 336 272 247 230 231 218 218
268 268 269 276 281 286 287 293 297 301 301 306 309 312 316 315 319 324 327 328 330 321 328 322 341 346 349 353 353 354 356 359 360 3 6 10 15 18 20 21 12 322 272 250 235 225 219
259 277 277 272 284 285 288 291 294 295 300 299 306 309 306 312 315 316 320 324 324 324 332 334 338 340 341 347 344 349 352 359 357 359 1 5 5 12 16 20 20 6 322 271 243 229 219
271 261 280 274 276 283 286 288 289 293 295 298 302 304 308 311 313 313 317 320 320 328 325 330 332 337 337 342 345 347 341 350 352 354 356 359 3 3 9 13 18 19 6 332 268 240 216
266 271 271 278 280 280 280 284 288 290 292 295 303 299 303 307 309 312 311 316 319 323 325 328 327 331 332 336 337 344 338 323 345 351 354 356 355 3 358 4 7 16 20 8 338 250 234
265 268 266 268 276 281 283 285 288 289 286 290 293 293 304 302 303 308 310 311 313 306 318 322 324 323 327 323 334 335 320 337 316 351 342 345 350 350 358 353 356 359 13 20 10 345 242
260 270 267 274 269 273 276 279 281 283 291 292 289 304 298 301 303 305 307 309 311 314 316 317 319 319 318 321 329 331 298 317 334 332 307 342 340 343 343 351 347 350 353 11 20 13 345
264 268 269 274 275 272 278 282 286 282 283 284 287 295 295 297 298 300 303 305 308 310 307 311 306 313 316 316 319 322 319 325 326 317 323 307 335 334 333 334 342 338 334 346 7 18 19
271 279 272 272 272 281 277 282 285 279 281 284 286 291 295 296 294 298 299 302 304 297 302 307 307 307 310 311 312 311 312 318 320 302 316 312 317 319 321 320 323 328 325 319 325 350 6
269 279 265 268 272 272 276 278 281 284 285 283 287 287 290 291 295 296 299 294 303 302 303 299 298 304 306 298 307 302 307 312 312 312 307 304 310 314 318 310 311 312 312 307 297 294 297
262 264 266 267 270 272 275 278 279 280 282 284 284 286 288 289 290 293 291 292 293 295 294 291 295 299 298 298 300 299 305 305 306 306 278 307 289 320 295 309 304 307 297 296 291 278 276
265 266 268 269 271 274 274 279 280 281 282 283 282 288 288 288 287 291 289 289 289 288 294 290 294 296 295 295 295 299 298 297 300 296 303 297 297 301 284 306 300 302 298 289 277 278 272
272 273 273 272 277 273 275 282 282 283 282 288 286 282 291 292 294 295 295 284 294 290 291 293 293 292 294 293 296 299 295 295 294 294 294 294 292 297 289 282 286 287 286 284 268 287 283
272 274 277 278 277 275 279 285 280 287 283 289 292 281 293 282 291 289 294 292 289 296 293 289 292 297 295 290 294 299 295 290 288 285 286 290 295 291 286 284 284 298 284 279 273 270 267